Regional Weather Roundup
Issued by NWS

Home | Current Version | Previous Version | Graphics & Text | Print | Product List | Glossary On
Versions: 1 2 3 4 5 6 7 8 9 10 11 12 13 14 15 16 17 18 19 20 21 22 23 24 25 26 27 28 29 30 31 32 33 34 35 36 37 38 39 40 41 42 43 44 45 46 47 48 49 50
000
ASUS45 KCYS 220210
RWRWY

WYOMING REGIONAL WEATHER ROUNDUP
NATIONAL WEATHER SERVICE CHEYENNE WY
800 PM MDT MON JUL 21 2014

NOTE:  "FAIR" INDICATES FEW OR NO CLOUDS BELOW 12,000 FEET
WITH NO SIGNIFICANT WEATHER AND/OR OBSTRUCTIONS TO VISIBILITY.

WYZ001-220300-
YELLOWSTONE NATIONAL PARK

CITY           SKY/WX    TMP DP  RH WIND       PRES   REMARKS
LK YELLOWSTONE   N/A     53  48  83 NW3       30.37R
W YELLOWSTONE  NOT AVBL

$$
WYZ002>013-054>058-071-098>099-220300-
NORTHERN WYOMING

CITY           SKY/WX    TMP DP  RH WIND       PRES   REMARKS
JACKSON        CLEAR     64  50  59 CALM      30.25R
CODY           CLOUDY    75  41  29 W6G16     30.12F
GREYBULL       MOCLDY    87  47  24 NW15      29.99R
WORLAND        MOCLDY    78  41  26 W21G46    30.05R
SHERIDAN       MOCLDY    69  61  75 NW13      30.06R
BUFFALO        MOCLDY    75  54  47 S10       30.11F
GILLETTE       MOCLDY    73  52  47 NW6       30.02R
HULETT         FAIR      77  52  41 MISG      30.03
NEWCASTLE      FAIR      84  43  23 MISG      29.99

$$
WYZ014>020-022>026-101>103-220300-
CENTRAL WYOMING

CITY           SKY/WX    TMP DP  RH WIND       PRES   REMARKS
BIG PINEY      CLEAR     71  39  31 NE14G23   30.28R
PINEDALE       CLEAR     70  39  32 NW7       30.29R
DUBOIS         FAIR      59  41  51 CALM      30.30S
LANDER         PTCLDY    72  42  34 NW20G31   30.12R
RIVERTON       PTCLDY    76  36  23 NW26G36   30.13R
CASPER         CLEAR     84  36  18 NW8       30.07R
DOUGLAS        CLEAR     87  35  15 W12       30.04R

$$
WYZ021-027>030-104>119-220300-
SOUTHERN WYOMING

CITY           SKY/WX    TMP DP  RH WIND       PRES   REMARKS
EVANSTON       CLEAR     76  25  15 SW14      30.27R
KEMMERER       CLEAR    N/A N/A N/A W8        30.28R
ROCK SPRINGS   CLEAR     82  30  15 NW14      30.22R
DIXON          FAIR      83  32  16 S8        30.24S
RAWLINS        PTCLDY    79  27  14 SW5       30.23R
SARATOGA       FAIR      81  21  11 SW12      30.27R
LARAMIE        PTCLDY    76  38  25 SW13      30.28R
CHEYENNE       PTCLDY    79  42  26 S6        30.18F
TORRINGTON     PTCLDY    82  52  35 SE9       29.99R
PINE BLUFFS    FAIR      82  45  26 E3        30.11F

$$


USA.gov is the U.S. government's official web portal to all federal, state and local government web resources and services.